1484899200.2,45041,6.63,74188.0,-1.65,-32.97,-32.19,0,*50
1484899201.48,45042,6.63,74190.0,-1.65,-32.63,-31.73,0,*57
1484899202.74,45043,6.63,74190.8,-1.65,-32.79,-31.79,0,*57
1484899204.0,45044,6.63,74190.5,-1.63,-32.45,-31.51,0,*53
1484899205.23,45045,6.63,74188.8,-1.63,-32.51,-31.57,0,*51
1484899206.46,45046,6.63,74190.0,-1.63,-32.57,-31.57,0,*54
1484899207.72,45047,6.63,74190.5,-1.61,-32.75,-31.67,0,*54
1484899208.98,45048,6.63,74190.5,-1.61,-32.57,-31.57,0,*58
1484899210.25,45049,6.63,74190.5,-1.61,-32.75,-31.67,0,*5A
1484899211.5,45050,6.63,74190.3,-1.61,-32.63,-31.67,0,*55
1484899212.79,45051,6.63,74194.3,-1.61,-32.45,-31.51,0,*55
1484899214.03,45052,6.63,74188.0,-1.59,-32.75,-31.67,0,*5B
1484899215.27,45053,6.63,74190.3,-1.59,-32.51,-31.51,0,*59
1484899216.54,45054,6.63,74184.3,-1.59,-32.75,-31.61,0,*5B
1484899217.8,45055,6.63,74184.0,-1.55,-32.75,-31.51,0,*55
1484899219.02,45056,6.63,74182.5,-1.55,-33.67,-32.51,0,*57
1484899220.24,45057,6.63,74186.5,-1.55,-34.07,-32.91,0,*5B
1484899221.47,45058,6.63,74188.0,-1.59,-33.77,-32.57,0,*52
1484899222.74,45059,6.63,74184.0,-1.59,-33.31,-32.07,0,*54
1484899224.01,45060,6.63,74184.0,-1.59,-33.49,-32.19,0,*5E
1484899225.27,45061,6.63,74186.5,-1.59,-33.43,-32.19,0,*55
1484899226.54,45062,6.63,74186.3,-1.59,-33.31,-32.07,0,*5C
1484899227.77,45063,6.63,74184.8,-1.55,-33.15,-31.91,0,*5B
1484899229.03,45064,6.63,74188.0,-1.55,-32.97,-31.61,0,*58
1484899230.3,45065,6.63,74188.0,-1.59,-32.85,-31.61,0,*56
1484899231.53,45066,6.63,74188.0,-1.59,-33.61,-32.35,0,*5C
1484899232.74,45067,6.63,74188.3,-1.55,-33.15,-32.01,0,*55
1484899233.99,45068,6.63,74186.3,-1.55,-32.97,-31.91,0,*5B
1484899235.23,45069,6.63,74188.0,-1.55,-32.97,-32.01,0,*50
1484899236.46,45070,6.63,74186.8,-1.55,-32.97,-32.01,0,*58
1484899237.72,45071,6.63,74188.3,-1.55,-32.97,-32.19,0,*50
1484899238.95,45072,6.63,74188.3,-1.55,-32.97,-32.23,0,*5A
1484899240.21,45073,6.63,74188.8,-1.53,-32.91,-32.19,0,*52
1484899241.49,45074,6.63,74190.0,-1.53,-33.09,-32.29,0,*56
1484899242.71,45075,6.63,74184.3,-1.51,-32.91,-32.29,0,*55
1484899243.95,45076,6.63,74192.8,-1.51,-33.03,-32.45,0,*56
1484899245.21,45077,6.63,74186.5,-1.51,-33.27,-32.85,0,*5D
1484899246.46,45078,6.63,74188.8,-1.51,-33.27,-32.79,0,*51
1484899247.72,45079,6.63,74188.0,-1.51,-33.09,-32.63,0,*57
1484899249.01,45080,6.63,74188.0,-1.53,-33.09,-32.63,0,*53
1484899250.27,45081,6.63,74188.8,-1.51,-33.09,-32.79,0,*5B
1484899251.55,45082,6.63,74188.3,-1.49,-33.73,-33.49,0,*5E
1484899252.81,45083,6.63,74190.5,-1.49,-33.03,-32.75,0,*56
1484899254.09,45084,6.63,74190.5,-1.49,-32.97,-32.63,0,*5A
1484899255.38,45085,6.63,74190.0,-1.47,-32.85,-32.63,0,*56
1484899256.64,45086,6.63,74188.5,-1.47,-33.03,-32.63,0,*5A
1484899257.9,45087,6.63,74184.8,-1.47,-33.03,-32.75,0,*5C
1484899259.16,45088,6.63,74188.3,-1.47,-33.15,-32.79,0,*58
1484899260.45,45089,6.63,74190.8,-1.47,-32.97,-32.63,0,*59
1484899261.65,45090,6.63,74184.3,-1.45,-32.91,-32.57,0,*52
1484899262.88,45091,6.63,74190.3,-1.45,-33.15,-32.79,0,*52
1484899264.17,45092,6.63,74188.8,-1.43,-33.43,-33.09,0,*52
1484899265.43,45093,6.63,74186.5,-1.45,-33.31,-32.97,0,*56
1484899266.69,45094,6.63,74188.8,-1.45,-33.31,-33.09,0,*57
1484899267.96,45095,6.63,74190.0,-1.45,-33.77,-33.43,0,*5A
1484899269.21,45096,6.63,74188.0,-1.45,-33.89,-33.61,0,*58
1484899270.45,45097,6.63,74190.5,-1.45,-34.19,-33.83,0,*5B
1484899271.66,45098,6.63,74190.8,-1.45,-34.07,-33.83,0,*5B
1484899272.9,45099,6.63,74188.0,-1.47,-33.83,-33.37,0,*5C
1484899274.17,45100,6.63,74190.8,-1.47,-33.21,-32.75,0,*52
1484899275.42,45101,6.63,74190.3,-1.47,-33.15,-32.45,0,*57
1484899276.68,45102,6.63,74190.8,-1.47,-32.85,-32.13,0,*5F
1484899277.92,45103,6.63,74194.3,-1.45,-32.79,-32.01,0,*5C
1484899279.18,45104,6.63,74192.5,-1.43,-32.75,-32.01,0,*51
1484899280.42,45105,6.63,74192.0,-1.45,-32.91,-32.07,0,*5A
1484899281.68,45106,6.63,74190.0,-1.43,-32.91,-32.19,0,*50
1484899282.92,45107,6.63,74186.0,-1.43,-33.95,-33.37,0,*59
1484899284.13,45108,6.63,74190.8,-1.45,-33.83,-33.15,0,*57
1484899285.37,45109,6.63,74188.0,-1.45,-33.83,-32.79,0,*5D
1484899286.63,45110,6.63,74188.0,-1.43,-33.77,-32.91,0,*5E
1484899287.87,45111,6.63,74186.3,-1.45,-33.27,-32.39,0,*5E
1484899289.11,45112,6.63,74186.3,-1.45,-33.27,-32.23,0,*56
1484899290.34,45113,6.63,74184.8,-1.45,-33.15,-32.07,0,*50
1484899291.58,45114,6.63,74182.3,-1.43,-33.55,-32.69,0,*5D
1484899292.8,45115,6.63,74186.3,-1.45,-33.67,-32.69,0,*5B
1484899294.06,45116,6.63,74186.0,-1.43,-34.83,-33.83,0,*56
1484899295.29,45117,6.63,74186.8,-1.47,-35.01,-34.25,0,*53
1484899296.55,45118,6.63,74184.0,-1.47,-34.41,-33.73,0,*5D
1484899297.78,45119,6.63,74180.0,-1.47,-34.41,-33.83,0,*53
1484899299.01,45120,6.63,74180.5,-1.47,-34.41,-33.83,0,*59
1484899300.28,45121,6.63,74178.3,-1.49,-33.73,-33.15,0,*5F
1484899301.51,45122,6.63,74182.5,-1.49,-34.47,-33.95,0,*54
1484899302.79,45123,6.63,74180.3,-1.49,-34.83,-34.31,0,*54
1484899304.02,45124,6.63,74176.5,-1.51,-35.47,-35.07,0,*57
1484899305.25,45125,6.63,74176.8,-1.51,-34.53,-34.13,0,*56
1484899306.51,45126,6.63,74182.8,-1.51,-34.19,-33.77,0,*5E
1484899307.74,45127,6.63,74184.5,-1.51,-34.35,-33.95,0,*5D
1484899309.03,45128,6.63,74180.3,-1.53,-34.01,-33.77,0,*5B
1484899310.31,45129,6.63,74182.8,-1.53,-34.01,-33.77,0,*5A
1484899311.6,45130,6.63,74182.5,-1.53,-34.01,-33.77,0,*52
1484899312.86,45131,6.63,74184.0,-1.53,-33.61,-33.37,0,*56
1484899314.12,45132,6.63,74188.5,-1.51,-33.77,-33.43,0,*53
1484899315.4,45133,6.63,74180.8,-1.53,-33.27,-32.85,0,*5E
1484899316.69,45134,6.63,74186.5,-1.53,-33.43,-33.09,0,*5E
1484899317.92,45135,6.63,74190.5,-1.51,-33.27,-33.03,0,*55
1484899319.15,45136,6.63,74190.0,-1.51,-33.27,-32.91,0,*5C
1484899320.41,45137,6.63,74188.0,-1.51,-33.27,-32.85,0,*58
1484899321.64,45138,6.63,74188.5,-1.51,-33.21,-32.85,0,*51
1484899322.87,45139,6.63,74184.3,-1.51,-33.27,-33.03,0,*59
1484899324.16,45140,6.63,74184.3,-1.49,-33.31,-33.31,0,*58
1484899325.41,45141,6.63,74186.5,-1.49,-33.89,-33.55,0,*58
1484899326.64,45142,6.63,74186.3,-1.49,-34.13,-33.83,0,*54
1484899327.89,45143,6.63,74186.5,-1.49,-34.31,-34.25,0,*5E
1484899329.14,45144,6.63,74190.5,-1.49,-34.59,-34.31,0,*52
1484899330.4,45145,6.63,74180.5,-1.49,-33.49,-33.15,0,*54
1484899331.66,45146,6.63,74186.5,-1.49,-33.73,-33.67,0,*5B
1484899332.89,45147,6.63,74182.5,-1.49,-34.47,-34.25,0,*5B
1484899334.12,45148,6.63,74184.3,-1.47,-34.25,-33.95,0,*52
1484899335.35,45149,6.63,74186.3,-1.49,-34.41,-34.13,0,*56
1484899336.6,45150,6.63,74188.3,-1.49,-34.25,-33.89,0,*58
1484899337.86,45151,6.63,74186.5,-1.49,-34.31,-33.95,0,*51
1484899339.12,45152,6.63,74186.0,-1.49,-33.49,-33.21,0,*55
1484899340.37,45153,6.63,74188.8,-1.49,-34.31,-33.83,0,*54
1484899341.62,45154,6.63,74188.0,-1.49,-34.25,-33.89,0,*5C
1484899342.86,45155,6.63,74186.8,-1.51,-33.37,-33.09,0,*58
1484899344.07,45156,6.63,74190.5,-1.51,-33.37,-33.03,0,*51
1484899345.33,45157,6.63,74188.0,-1.51,-34.31,-33.89,0,*53
1484899346.59,45158,6.63,74184.0,-1.49,-34.07,-33.73,0,*55
1484899347.85,45159,6.63,74186.3,-1.49,-33.21,-32.85,0,*5F
1484899349.11,45160,6.63,74184.8,-1.47,-33.21,-32.85,0,*5B
1484899350.35,45161,6.63,74188.5,-1.49,-33.37,-33.03,0,*5C
1484899351.6,45162,6.63,74192.0,-1.49,-33.21,-32.79,0,*54
1484899352.89,45163,6.63,74186.8,-1.49,-33.31,-32.79,0,*54
1484899354.12,45164,6.63,74190.5,-1.47,-33.15,-32.39,0,*5F
1484899355.38,45165,6.63,74190.5,-1.47,-33.15,-32.63,0,*51
1484899356.64,45166,6.63,74190.5,-1.47,-33.15,-32.79,0,*59
1484899357.88,45167,6.63,74186.3,-1.47,-33.83,-33.67,0,*59
1484899359.14,45168,6.63,74198.8,-1.47,-34.07,-33.73,0,*58
1484899360.4,45169,6.63,74190.0,-1.47,-33.89,-33.67,0,*5D
1484899361.65,45170,6.63,74194.5,-1.45,-34.01,-33.67,0,*50
1484899362.88,45171,6.63,74194.8,-1.45,-34.19,-33.83,0,*52
1484899364.15,45172,6.63,74192.0,-1.47,-34.65,-34.59,0,*58
1484899365.44,45173,6.63,74194.0,-1.47,-34.83,-34.65,0,*5E
1484899366.69,45174,6.63,74190.0,-1.49,-34.77,-34.31,0,*5D
1484899367.92,45175,6.63,74186.8,-1.49,-34.77,-34.41,0,*5B
1484899369.18,45176,6.63,74182.3,-1.51,-34.35,-33.77,0,*55
1484899370.38,45177,6.63,74178.8,-1.51,-34.77,-34.25,0,*52
1484899371.63,45178,6.63,74176.5,-1.53,-34.89,-34.31,0,*5B
1484899372.89,45179,6.63,74168.0,-1.51,-34.83,-34.19,0,*58
1484899374.12,45180,6.63,74172.5,-1.51,-34.65,-33.95,0,*55
1484899375.38,45181,6.63,74178.5,-1.53,-35.01,-34.31,0,*5C
1484899376.65,45182,6.63,74178.0,-1.53,-34.71,-34.01,0,*5A
1484899377.88,45183,6.63,74182.5,-1.55,-34.25,-33.61,0,*5D
1484899379.11,45184,6.63,74182.0,-1.55,-33.95,-33.27,0,*54
1484899380.32,45185,6.63,74182.5,-1.55,-34.41,-33.83,0,*55
1484899381.56,45186,6.63,74180.5,-1.59,-34.41,-33.77,0,*51
1484899382.79,45187,6.63,74184.5,-1.55,-34.89,-34.19,0,*57
1484899383.99,45188,6.63,74180.0,-1.55,-35.47,-34.71,0,*55
1484899385.25,45189,6.63,74172.8,-1.59,-35.07,-34.19,0,*52
1484899386.52,45190,6.63,74174.3,-1.59,-34.95,-34.19,0,*50
1484899387.76,45191,6.63,74164.8,-1.61,-35.01,-34.13,0,*5C
1484899389.0,45192,6.63,74162.8,-1.63,-35.53,-34.83,0,*53
1484899390.27,45193,6.63,74166.3,-1.65,-35.41,-34.83,0,*57
1484899391.53,45194,6.63,74164.5,-1.65,-35.17,-34.65,0,*5B
1484899392.76,45195,6.69,74170.5,-1.65,-35.17,-34.89,0,*58
1484899394.01,45196,6.63,74170.3,-1.67,-35.53,-35.23,0,*58
1484899395.27,45197,6.63,74174.8,-1.65,-34.71,-34.31,0,*58
1484899396.48,45198,6.63,74172.8,-1.67,-34.41,-34.13,0,*56
1484899397.71,45199,6.63,74174.0,-1.67,-34.71,-34.19,0,*5E
1484899398.94,45200,6.63,74174.3,-1.69,-34.89,-34.59,0,*50
1484899400.24,45201,6.63,74174.3,-1.69,-34.53,-34.01,0,*5B
1484899401.52,45202,6.63,74176.0,-1.69,-34.19,-33.77,0,*50
1484899402.78,45203,6.63,74174.8,-1.69,-34.95,-34.59,0,*5E
1484899404.04,45204,6.63,74176.5,-1.69,-34.59,-34.19,0,*5D
1484899405.3,45205,6.63,74174.8,-1.69,-34.19,-33.67,0,*56
1484899406.54,45206,6.63,74174.8,-1.69,-34.59,-34.13,0,*55
1484899407.82,45207,6.63,74176.5,-1.69,-35.53,-35.07,0,*5B
1484899409.07,45208,6.63,74176.0,-1.69,-35.41,-34.89,0,*50
1484899410.3,45209,6.63,74178.8,-1.71,-35.17,-34.65,0,*59
1484899411.54,45210,6.69,74182.3,-1.71,-34.95,-34.47,0,*5A
1484899412.81,45211,6.63,74186.0,-1.71,-34.65,-33.73,0,*54
1484899414.06,45212,6.63,74182.8,-1.71,-34.47,-33.73,0,*57
1484899415.27,45213,6.63,74176.0,-1.71,-34.41,-33.37,0,*50
1484899416.48,45214,6.63,74176.3,-1.71,-34.07,-33.15,0,*55
1484899417.7,45215,6.69,74180.0,-1.71,-34.77,-33.67,0,*56
1484899418.96,45216,6.63,74180.5,-1.75,-34.83,-33.73,0,*5F
1484899420.2,45217,6.63,74178.5,-1.73,-34.77,-33.55,0,*57
1484899421.46,45218,6.63,74178.5,-1.73,-34.19,-32.91,0,*59
1484899422.71,45219,6.69,74182.3,-1.73,-33.31,-32.23,0,*5C
1484899423.95,45220,6.69,74182.5,-1.73,-33.21,-32.23,0,*57
1484899425.21,45221,6.69,74184.3,-1.71,-33.49,-32.29,0,*50
1484899426.42,45222,6.63,74180.3,-1.71,-34.07,-32.91,0,*5D
1484899427.66,45223,6.69,74186.8,-1.71,-33.67,-32.45,0,*54
1484899428.9,45224,6.69,74184.5,-1.71,-34.01,-32.91,0,*5D
1484899430.17,45225,6.63,74186.0,-1.71,-33.89,-32.75,0,*51
1484899431.4,45226,6.63,74184.3,-1.69,-34.25,-33.03,0,*5A
1484899432.63,45227,6.63,74178.5,-1.71,-34.25,-33.09,0,*58
1484899433.91,45228,6.69,74180.0,-1.71,-34.01,-32.75,0,*5B
1484899435.12,45229,6.63,74174.0,-1.71,-34.41,-33.21,0,*5E
1484899436.35,45230,6.63,74178.3,-1.71,-34.31,-33.15,0,*56
1484899437.62,45231,6.69,74172.3,-1.71,-34.01,-32.79,0,*5F
1484899438.83,45232,6.69,74176.8,-1.71,-34.25,-33.15,0,*51
1484899440.09,45233,6.63,74176.0,-1.71,-34.83,-33.73,0,*5C
1484899441.33,45234,6.69,74178.0,-1.71,-34.31,-33.21,0,*55
1484899442.57,45235,6.63,74176.0,-1.75,-35.07,-34.13,0,*52
1484899443.85,45236,6.63,74178.8,-1.73,-34.31,-33.31,0,*54
1484899445.11,45237,6.63,74176.8,-1.73,-34.01,-33.15,0,*50
1484899446.36,45238,6.63,74180.3,-1.75,-34.07,-33.27,0,*5E
1484899447.62,45239,6.63,74182.3,-1.75,-33.61,-32.79,0,*52
1484899448.87,45240,6.69,74186.0,-1.75,-33.61,-32.97,0,*5C
1484899450.13,45241,6.63,74182.5,-1.73,-33.21,-32.45,0,*50
1484899451.37,45242,6.63,74182.5,-1.75,-33.43,-32.69,0,*5F
1484899452.62,45243,6.63,74184.3,-1.73,-33.67,-32.97,0,*5F
1484899453.86,45244,6.63,74184.0,-1.73,-33.21,-32.39,0,*5E
1484899455.1,45245,6.63,74184.0,-1.71,-33.09,-32.39,0,*57
1484899456.31,45246,6.69,74186.5,-1.71,-33.15,-32.39,0,*59
1484899457.57,45247,6.69,74188.3,-1.69,-33.09,-32.35,0,*50
1484899458.85,45248,6.63,74186.5,-1.69,-33.77,-33.09,0,*58
1484899460.07,45249,6.63,74182.8,-1.71,-33.37,-32.91,0,*54
1484899461.33,45250,6.69,74186.5,-1.71,-33.31,-32.75,0,*50
1484899462.6,45251,6.69,74186.3,-1.69,-33.83,-33.31,0,*50
1484899463.86,45252,6.69,74188.8,-1.69,-33.83,-33.31,0,*53
1484899465.12,45253,6.69,74188.8,-1.69,-33.67,-33.09,0,*53
1484899466.41,45254,6.69,74186.8,-1.69,-33.43,-32.85,0,*57
1484899467.67,45255,6.63,74186.0,-1.69,-33.49,-33.03,0,*53
1484899468.93,45256,6.63,74178.8,-1.69,-33.67,-33.09,0,*56
1484899470.19,45257,6.69,74186.5,-1.69,-33.31,-32.69,0,*53
1484899471.43,45258,6.69,74188.3,-1.67,-33.43,-32.91,0,*50
1484899472.67,45259,6.63,74184.3,-1.67,-33.95,-33.43,0,*54
1484899473.9,45260,6.69,74186.0,-1.67,-33.61,-33.15,0,*56
1484899475.11,45261,6.63,74186.3,-1.67,-33.95,-33.37,0,*5C
1484899476.37,45262,6.69,74186.5,-1.71,-33.49,-32.97,0,*52
1484899477.58,45263,6.63,74184.0,-1.67,-33.67,-33.03,0,*54
1484899478.82,45264,6.63,74188.5,-1.67,-33.77,-33.15,0,*55
1484899480.1,45265,6.63,74184.5,-1.65,-33.77,-33.09,0,*5B
1484899481.34,45266,6.63,74184.5,-1.67,-33.95,-33.27,0,*5A
1484899482.58,45267,6.63,74184.5,-1.67,-34.13,-33.43,0,*50
1484899483.83,45268,6.63,74186.3,-1.67,-34.13,-33.43,0,*5F
1484899485.09,45269,6.63,74188.0,-1.67,-34.01,-33.27,0,*5F
1484899486.32,45270,6.63,74184.3,-1.67,-33.27,-32.57,0,*52
1484899487.56,45271,6.63,74186.3,-1.67,-33.67,-33.09,0,*5D
1484899488.8,45272,6.63,74184.5,-1.67,-33.67,-33.09,0,*5E
1484899490.04,45273,6.63,74186.0,-1.67,-33.09,-32.39,0,*55
1484899491.3,45274,6.63,74186.8,-1.67,-32.85,-32.19,0,*55
1484899492.57,45275,6.69,74190.3,-1.65,-33.73,-33.03,0,*54
1484899493.83,45276,6.69,74190.8,-1.67,-33.31,-32.75,0,*53
1484899495.07,45277,6.69,74188.5,-1.67,-33.61,-32.91,0,*5D
1484899496.3,45278,6.63,74188.3,-1.65,-33.95,-33.21,0,*51
1484899497.53,45279,6.63,74188.5,-1.67,-33.43,-32.57,0,*59
1484899498.79,45280,6.63,74186.5,-1.65,-32.79,-32.01,0,*56
1484899500.04,45281,6.63,74184.5,-1.65,-32.97,-32.01,0,*57
1484899501.28,45282,6.63,74188.0,-1.65,-33.37,-32.69,0,*51
1484899502.55,45283,6.69,74190.8,-1.65,-33.03,-32.19,0,*50
1484899503.79,45284,6.69,74190.8,-1.65,-33.21,-32.51,0,*5B
1484899505.05,45285,6.69,74188.8,-1.65,-33.37,-32.63,0,*5C
1484899506.28,45286,6.69,74188.8,-1.67,-32.51,-31.51,0,*5E
1484899507.57,45287,6.69,74190.8,-1.65,-32.45,-31.61,0,*5B
1484899508.82,45288,6.63,74186.3,-1.65,-32.51,-31.57,0,*54
1484899510.1,45289,6.69,74188.3,-1.65,-33.43,-32.29,0,*5D
1484899511.36,45290,6.63,74186.8,-1.65,-33.37,-32.29,0,*56
1484899512.64,45291,6.63,74186.8,-1.65,-32.97,-31.61,0,*53
1484899513.92,45292,6.69,74190.3,-1.65,-32.97,-31.73,0,*53
1484899515.18,45293,6.69,74190.8,-1.65,-32.63,-31.29,0,*56
1484899516.4,45294,6.69,74192.0,-1.63,-32.13,-30.83,0,*51
1484899517.68,45295,6.69,74190.8,-1.65,-33.09,-31.73,0,*52
1484899518.97,45296,6.63,74186.3,-1.65,-32.29,-30.89,0,*56
1484899520.2,45297,6.69,74192.0,-1.63,-32.29,-31.01,0,*50
1484899521.43,45298,6.63,74190.5,-1.63,-32.45,-31.01,0,*55
1484899522.64,45299,6.69,74188.3,-1.63,-33.15,-31.67,0,*50
1484899523.9,45300,6.69,74190.3,-1.63,-32.79,-31.23,0,*5A
1484899525.14,45301,6.69,74190.3,-1.63,-32.91,-31.23,0,*5D
1484899526.38,45302,6.69,74194.0,-1.63,-33.03,-31.51,0,*51
1484899527.6,45303,6.69,74194.8,-1.63,-32.57,-30.83,0,*5E
1484899528.84,45304,6.69,74190.5,-1.61,-32.13,-30.67,0,*51
1484899530.11,45305,6.69,74186.3,-1.61,-33.55,-32.07,0,*57
1484899531.38,45306,6.69,74186.0,-1.63,-34.01,-32.75,0,*55
1484899532.64,45307,6.69,74184.0,-1.65,-34.53,-33.21,0,*55
1484899533.89,45308,6.69,74184.8,-1.67,-34.59,-33.27,0,*54
1484899535.12,45309,6.69,74184.5,-1.67,-34.41,-33.09,0,*50
1484899536.34,45310,6.69,74184.8,-1.67,-33.95,-32.69,0,*51
1484899537.6,45311,6.69,74180.5,-1.67,-34.35,-33.09,0,*5A
1484899538.84,45312,6.63,74180.3,-1.67,-34.59,-33.31,0,*58
1484899540.09,45313,6.63,74182.0,-1.67,-34.59,-33.43,0,*5C
1484899541.33,45314,6.69,74184.8,-1.69,-34.77,-33.67,0,*5F
1484899542.57,45315,6.69,74186.3,-1.71,-34.47,-33.31,0,*57
1484899543.86,45316,6.63,74180.8,-1.73,-34.65,-33.49,0,*59
1484899545.09,45317,6.69,74182.0,-1.73,-35.13,-34.07,0,*55
1484899546.38,45318,6.69,74184.5,-1.73,-34.01,-32.75,0,*5B
1484899547.61,45319,6.69,74186.3,-1.73,-33.83,-32.69,0,*5A
1484899548.86,45320,6.69,74188.0,-1.73,-34.59,-33.37,0,*5A
1484899550.09,45321,6.69,74186.5,-1.75,-34.89,-33.89,0,*55
1484899551.36,45322,6.69,74186.5,-1.75,-33.73,-32.79,0,*5A
1484899552.57,45323,6.69,74186.0,-1.75,-34.07,-33.03,0,*53
1484899553.84,45324,6.69,74180.5,-1.75,-34.53,-33.43,0,*51
1484899555.11,45325,6.69,74186.5,-1.77,-34.71,-33.73,0,*51
1484899556.39,45326,6.69,74186.5,-1.77,-35.23,-34.35,0,*51
1484899557.63,45327,6.63,74182.0,-1.81,-34.77,-33.73,0,*5C
1484899558.89,45328,6.63,74184.8,-1.81,-34.01,-33.09,0,*5F
1484899560.09,45329,6.69,74188.5,-1.81,-34.77,-33.83,0,*5D
1484899561.35,45330,6.63,74184.8,-1.81,-33.89,-32.75,0,*5B
1484899562.58,45331,6.69,74190.8,-1.81,-33.55,-32.45,0,*58
1484899563.81,45332,6.69,74188.0,-1.81,-33.31,-32.39,0,*52
1484899565.1,45333,6.69,74182.3,-1.77,-32.79,-31.85,0,*53
1484899566.35,45334,6.69,74188.5,-1.81,-32.97,-31.91,0,*58
1484899567.61,45335,6.69,74182.5,-1.77,-33.55,-32.79,0,*5A
1484899568.87,45336,6.69,74184.0,-1.81,-34.19,-33.49,0,*5D
1484899570.16,45337,6.69,74184.3,-1.77,-33.77,-33.27,0,*52
1484899571.43,45338,6.69,74180.8,-1.77,-33.73,-33.15,0,*58
1484899572.66,45339,6.69,74182.5,-1.75,-33.61,-33.03,0,*5F
1484899573.93,45340,6.69,74182.8,-1.75,-33.73,-32.85,0,*5D
1484899575.23,45341,6.69,74184.3,-1.77,-32.79,-31.95,0,*57
1484899576.48,45342,6.69,74184.3,-1.75,-33.27,-32.29,0,*58
1484899577.73,45343,6.63,74182.0,-1.75,-33.73,-32.69,0,*5C
1484899578.94,45344,6.69,74180.8,-1.75,-33.37,-32.35,0,*52
1484899580.23,45345,6.69,74180.8,-1.73,-32.75,-31.85,0,*5A
1484899581.46,45346,6.69,74182.8,-1.75,-33.37,-32.45,0,*57
1484899582.72,45347,6.69,74184.5,-1.73,-33.55,-32.63,0,*50
1484899583.96,45348,6.69,74186.3,-1.73,-33.37,-32.39,0,*54
1484899585.21,45349,6.69,74186.8,-1.73,-33.67,-32.63,0,*5F
1484899586.5,45350,6.63,74184.3,-1.73,-33.49,-32.29,0,*55
1484899587.73,45351,6.69,74184.3,-1.71,-33.31,-32.23,0,*53
1484899588.99,45352,6.63,74184.8,-1.71,-33.49,-32.29,0,*55
1484899590.25,45353,6.69,74186.3,-1.71,-33.61,-32.63,0,*50
1484899591.53,45354,6.69,74188.5,-1.69,-33.61,-32.85,0,*56
1484899592.77,45355,6.63,74180.8,-1.71,-34.01,-33.15,0,*57
1484899594.03,45356,6.69,74192.3,-1.71,-33.49,-32.63,0,*5F
1484899595.29,45357,6.63,74188.5,-1.71,-32.97,-32.29,0,*52
1484899596.55,45358,6.69,74190.8,-1.69,-33.31,-32.91,0,*5A
1484899597.81,45359,6.69,74194.5,-1.69,-33.27,-33.03,0,*56
1484899599.07,45360,6.69,74190.0,-1.69,-32.75,-32.57,0,*5A
1484899600.35,45361,6.69,74190.8,-1.69,-33.43,-33.09,0,*55
1484899601.58,45362,6.69,74194.3,-1.71,-33.55,-33.31,0,*53
1484899602.84,45363,6.69,74188.8,-1.69,-34.19,-34.13,0,*53
1484899604.12,45364,6.69,74186.8,-1.69,-34.35,-34.19,0,*50
1484899605.39,45365,6.69,74186.5,-1.69,-34.13,-34.01,0,*5C
1484899606.64,45366,6.69,74186.5,-1.69,-33.43,-33.15,0,*5F
1484899607.9,45367,6.69,74186.5,-1.69,-33.49,-33.15,0,*54
1484899609.17,45368,6.69,74182.5,-1.69,-33.49,-33.03,0,*5C
1484899610.45,45369,6.69,74176.8,-1.69,-33.27,-32.75,0,*55
1484899611.72,45370,6.69,74180.5,-1.69,-33.67,-33.09,0,*53
1484899613.01,45371,6.63,74174.5,-1.69,-34.01,-33.43,0,*5B
1484899614.29,45372,6.69,74174.5,-1.69,-34.19,-33.49,0,*5B
1484899615.55,45373,6.69,74174.5,-1.69,-34.13,-33.31,0,*5F
1484899616.8,45374,6.69,74176.0,-1.71,-34.65,-34.07,0,*52
1484899618.03,45375,6.69,74176.5,-1.71,-35.71,-34.95,0,*5C
1484899619.25,45376,6.69,74184.3,-1.71,-35.89,-35.01,0,*54
1484899620.48,45377,6.69,74182.0,-1.75,-35.35,-34.47,0,*55
1484899621.69,45378,6.69,74184.0,-1.75,-34.25,-33.55,0,*5E
1484899622.92,45379,6.69,74188.5,-1.75,-33.55,-32.97,0,*50
1484899624.17,45380,6.69,74188.0,-1.73,-33.21,-33.09,0,*55
1484899625.46,45381,6.69,74190.5,-1.73,-33.31,-33.49,0,*51
1484899626.66,45382,6.69,74184.8,-1.75,-34.07,-34.25,0,*5B
1484899627.9,45383,6.69,74182.5,-1.73,-33.83,-33.67,0,*56
1484899629.16,45384,6.69,74180.3,-1.73,-35.01,-34.83,0,*50
1484899630.39,45385,6.69,74182.0,-1.75,-35.07,-34.71,0,*5C
1484899631.63,45386,6.69,74180.0,-1.75,-34.41,-33.73,0,*59
1484899632.89,45387,6.69,74180.8,-1.73,-34.65,-34.07,0,*5C
1484899634.11,45388,6.69,74172.3,-1.75,-34.71,-34.13,0,*55
1484899635.36,45389,6.69,74176.3,-1.75,-35.35,-35.07,0,*51
1484899636.59,45390,6.69,74178.8,-1.81,-35.01,-34.83,0,*58
1484899637.84,45391,6.69,74182.0,-1.77,-34.71,-34.71,0,*5B
1484899639.1,45392,6.69,74180.5,-1.81,-34.95,-34.95,0,*51
1484899640.33,45393,6.69,74186.5,-1.77,-33.95,-34.07,0,*55
1484899641.56,45394,6.69,74182.0,-1.81,-34.19,-34.07,0,*58
1484899642.82,45395,6.69,74184.8,-1.77,-33.95,-33.77,0,*53
1484899644.08,45396,6.69,74182.0,-1.81,-34.19,-34.01,0,*5C
1484899645.34,45397,6.69,74184.5,-1.81,-33.73,-33.31,0,*52
1484899646.57,45398,6.69,74184.8,-1.77,-33.55,-33.03,0,*51
1484899647.81,45399,6.69,74186.3,-1.77,-33.95,-33.55,0,*5F
1484899649.04,45400,6.69,74188.3,-1.77,-33.95,-33.55,0,*58
1484899650.31,45401,6.69,74182.5,-1.77,-34.07,-33.73,0,*51
1484899651.57,45402,6.69,74184.8,-1.77,-34.35,-34.07,0,*57
1484899652.83,45403,6.69,74188.0,-1.77,-33.89,-33.95,0,*5A
1484899654.12,45404,6.69,74188.8,-1.77,-34.53,-34.53,0,*50
1484899655.36,45405,6.69,74186.8,-1.77,-34.07,-33.95,0,*5D
1484899656.59,45406,6.69,74180.8,-1.77,-34.13,-34.13,0,*52
1484899657.89,45407,6.69,74180.8,-1.77,-33.73,-33.89,0,*56
1484899659.17,45408,6.69,74176.3,-1.77,-33.61,-33.61,0,*5C
1484899660.44,45409,6.69,74186.8,-1.77,-33.61,-33.61,0,*5D
1484899661.68,45410,6.69,74182.8,-1.75,-33.61,-33.55,0,*50
1484899662.93,45411,6.69,74180.0,-1.73,-33.67,-33.49,0,*5C
1484899664.16,45412,6.69,74186.0,-1.73,-33.55,-33.55,0,*53
1484899665.4,45413,6.69,74180.3,-1.75,-34.07,-33.77,0,*54
1484899666.66,45414,6.69,74184.0,-1.73,-33.37,-32.97,0,*5E
1484899667.89,45415,6.69,74190.0,-1.73,-33.37,-33.21,0,*53
1484899669.13,45416,6.69,74184.8,-1.75,-33.55,-33.27,0,*54
1484899670.37,45417,6.69,74188.3,-1.75,-33.55,-33.27,0,*55
1484899671.62,45418,6.69,74184.0,-1.73,-34.31,-34.25,0,*5C
1484899672.85,45419,6.69,74188.8,-1.75,-33.95,-33.89,0,*53
1484899674.06,45420,6.69,74188.5,-1.75,-33.37,-33.21,0,*53
1484899675.34,45421,6.69,74188.0,-1.73,-33.89,-33.89,0,*53
1484899676.62,45422,6.69,74188.8,-1.73,-33.49,-33.49,0,*50
1484899677.89,45423,6.69,74188.3,-1.71,-34.01,-34.01,0,*53
1484899679.12,45424,6.69,74188.5,-1.73,-33.55,-33.37,0,*52
1484899680.38,45425,6.69,74188.0,-1.73,-33.31,-33.15,0,*51
1484899681.61,45426,6.69,74188.8,-1.73,-33.55,-33.67,0,*55
1484899682.86,45427,6.69,74188.8,-1.73,-33.15,-33.09,0,*58
1484899684.12,45428,6.69,74190.0,-1.69,-32.51,-32.07,0,*52
1484899685.36,45429,6.69,74192.3,-1.69,-32.39,-32.35,0,*5C
1484899686.6,45430,6.69,74194.5,-1.69,-32.69,-32.69,0,*58
1484899687.86,45431,6.69,74192.8,-1.69,-32.91,-32.85,0,*5C
1484899689.1,45432,6.69,74190.8,-1.67,-33.09,-32.91,0,*54
1484899690.37,45433,6.69,74190.5,-1.67,-33.09,-32.75,0,*5F
1484899691.6,45434,6.69,74192.3,-1.67,-33.03,-32.85,0,*5D
1484899692.81,45435,6.69,74190.5,-1.67,-32.51,-32.23,0,*56
1484899694.08,45436,6.69,74188.5,-1.67,-32.19,-31.95,0,*57
1484899695.29,45437,6.69,74188.5,-1.67,-32.39,-32.23,0,*5A
1484899696.54,45438,6.69,74190.5,-1.65,-33.03,-32.97,0,*50
1484899697.79,45439,6.69,74190.0,-1.65,-32.69,-32.51,0,*56
1484899699.0,45440,6.69,74190.0,-1.67,-32.51,-32.35,0,*53
1484899700.24,45441,6.69,74190.3,-1.65,-32.51,-32.51,0,*52
1484899701.47,45442,6.69,74188.3,-1.63,-32.57,-32.45,0,*54
1484899702.71,45443,6.69,74192.0,-1.63,-32.57,-32.45,0,*55
1484899703.92,45444,6.69,74188.3,-1.63,-32.39,-32.13,0,*59
1484899705.18,45445,6.69,74194.0,-1.61,-32.39,-32.29,0,*53
1484899706.43,45446,6.69,74190.3,-1.61,-32.29,-32.13,0,*58
1484899707.69,45447,6.69,74190.8,-1.61,-32.13,-31.85,0,*5C